Location: Unspecified
(19.4326°N, 99.1332°W)
Time: 00:51:10
(UTC-06:00)

Hubble Space Telescope - Visible Passes

Search period start: 17 January 2018 00:00
Search period end: 27 January 2018 00:00
Orbit: 537 x 541 km, 28.5° (Epoch: 16 January)

Date Brightness Start Highest point End Pass type
(mag) Time Alt. Az. Time Alt. Az. Time Alt. Az.
17 Jan 2.6 05:13:22 25° SSE 05:13:22 25° SSE 05:15:26 10° SE visible
17 Jan 3.0 20:30:01 10° SW 20:31:32 21° SW 20:31:32 21° SW visible
18 Jan 3.3 05:03:53 15° SSE 05:03:53 15° SSE 05:04:52 10° SSE visible
18 Jan 3.0 18:40:45 10° S 18:42:45 13° SSE 18:44:45 10° ESE visible
18 Jan 2.3 20:19:38 10° WSW 20:22:03 33° SW 20:22:03 33° SW visible
19 Jan 1.4 20:09:20 10° WSW 20:12:33 53° WSW 20:12:33 53° WSW visible
20 Jan 0.8 19:59:07 10° WSW 20:03:02 70° NW 20:03:02 70° NW visible
21 Jan 1.0 19:48:58 10° W 19:53:01 56° NNW 19:53:29 52° N visible
22 Jan 1.4 19:38:52 10° W 19:42:48 45° NNW 19:43:55 35° NNE visible
23 Jan 1.7 19:28:48 10° W 19:32:37 37° NNW 19:34:20 25° NNE visible
24 Jan 1.9 19:18:46 10° WNW 19:22:27 32° NNW 19:24:44 19° NE visible
25 Jan 2.1 19:08:44 10° WNW 19:12:18 28° N 19:15:07 14° NE visible
26 Jan 2.3 18:58:43 10° WNW 19:02:10 25° N 19:05:31 10° NE visible
26 Jan 3.7 20:40:38 10° NW 20:40:52 11° NW 20:40:52 11° NW visible
